Location: Prague
(50.0830°N, 14.4670°E)
Time: 23:48:11
(UTC+01:00)

METEOR M2 - Visible Passes

Search period start: 01 December 2021 00:00
Search period end: 11 December 2021 00:00
Orbit: 819 x 827 km, 98.4° (Epoch: 01 December)

Date Brightness Start Highest point End Pass type
(mag) Time Alt. Az. Time Alt. Az. Time Alt. Az.
01 Dec ? 06:34:27 10° NE 06:38:55 26° E 06:43:22 10° SSE visible
01 Dec ? 18:01:13 10° SSE 18:06:32 63° ENE 18:11:51 10° N visible
01 Dec ? 19:42:58 10° SW 19:47:08 23° W 19:51:20 10° NW visible
02 Dec ? 06:15:05 10° NE 06:18:45 18° E 06:22:25 10° SE visible
02 Dec ? 17:41:36 10° SE 17:46:42 45° ENE 17:51:48 10° N visible
02 Dec ? 19:22:14 10° SSW 19:27:01 32° W 19:31:49 10° NNW visible
03 Dec ? 05:56:15 10° ENE 05:58:32 13° E 06:00:47 10° ESE visible
03 Dec ? 17:22:10 10° SE 17:26:55 33° ENE 17:31:39 10° N visible
03 Dec ? 19:01:48 10° S 19:06:56 45° W 19:12:07 10° NNW visible
04 Dec ? 17:02:57 10° ESE 17:07:11 24° ENE 17:11:25 10° N visible
04 Dec ? 18:41:36 10° S 18:46:56 65° WSW 18:52:19 10° NNW visible
04 Dec ? 20:27:30 10° W 20:28:10 10° W 20:28:52 10° WNW visible
05 Dec ? 06:54:36 10° NNE 06:59:36 38° E 07:04:33 10° SSE visible
05 Dec ? 16:44:00 10° E 16:47:31 18° NE 16:51:02 10° NNE visible
05 Dec ? 18:21:36 10° SSE 18:26:59 89° ENE 18:32:24 10° NNW visible
05 Dec ? 20:04:48 10° WSW 20:07:55 15° W 20:11:02 10° NW visible
06 Dec ? 06:35:00 10° NE 06:39:30 27° E 06:43:59 10° SSE visible
06 Dec ? 18:01:47 10° SSE 18:07:06 64° ENE 18:12:26 10° N visible
06 Dec ? 19:43:36 10° SW 19:47:43 22° W 19:51:52 10° NW visible
07 Dec ? 06:15:37 10° NE 06:19:20 19° E 06:23:03 10° SE visible
07 Dec ? 17:42:09 10° SE 17:47:15 46° ENE 17:52:22 10° N visible
07 Dec ? 19:22:50 10° SSW 19:27:35 31° W 19:32:22 10° NNW visible
08 Dec ? 05:56:44 10° ENE 05:59:07 13° E 06:01:29 10° ESE visible
08 Dec ? 17:22:43 10° SE 17:27:28 33° ENE 17:32:14 10° N visible
08 Dec ? 19:02:24 10° S 19:07:31 44° W 19:12:40 10° NNW visible
09 Dec ? 17:03:29 10° ESE 17:07:44 25° ENE 17:12:00 10° N visible
09 Dec ? 18:42:11 10° S 18:47:31 64° WSW 18:52:52 10° NNW visible
10 Dec ? 06:55:10 10° NNE 07:00:10 39° E 07:05:09 10° SSE visible
10 Dec ? 16:44:31 10° E 16:48:04 18° NE 16:51:38 10° NNE visible
10 Dec ? 18:22:10 10° SSE 18:27:33 89° WSW 18:32:58 10° NNW visible
10 Dec ? 20:05:29 10° WSW 20:08:30 15° W 20:11:33 10° NW visible
